Tracking 32142 objects as of 12-Nov-2025
HD Live streaming from Space Station
objects crossing your sky now

STARLINK-33955

Track STARLINK-33955 now!
10-day predictions
STARLINK-33955 is classified as:


NORAD ID: 63902
Int'l Code: 2025-095N
Perigee: 488.8 km
Apogee: 491.6 km
Inclination: 43.0 °
Period: 94.3 minutes
Semi major axis: 6861 km
RCS: Unknown
Launch date: May 10, 2025
Source: United States (US)
Launch site: AIR FORCE EASTERN TEST RANGE (AFETR)
Your satellite tracking list
Your tracking list is empty




NASA's NSSDC Master Catalog

Two Line Element Set (TLE):
1 63902U 25095N   25315.74196115  .00030535  00000-0  11144-2 0  9990
2 63902  43.0017 121.9371 0002042 267.7777  92.2841 15.27583443 29742
Source of the keplerian elements: AFSPC